Date String (YYYY-MM-DD hh:mm:ss) UTC,Instrument flags,absolute air pressure of the measurement (hPa),sample flow rate (lpm),inlet stack bypass flow (lpm),air temperature of the measurement (°C),ambient temperature measured by the external sensor (°C),aerosol sample conditioner tube jacket temperature (°C),OPC LED temperature (°C),internal box temperature (°C),relative humidity of the measurement (%),span deviation,mass concentration of particles derived from Lorenz-Mie calculation of OPC scattering (μg/m³),mass concentration of particles derived from Lorenz-Mie calculation of OPC scattering (μg/m³),mass concentration of particles derived from Lorenz-Mie calculation of OPC scattering (μg/m³)
DateTimeUTC,F1_M11,P_M11,Q1_M11,Q2_M11,T1_M11,T2_M11,T3_M11,T4_M11,T5_M11,U1_M11,ZSPAN_M11,X0_M11,X2_M11,X1_M11
2023-08-30 14:00:00,SystemResetWarning,0833.0,5.00,000.00,028.4,025.3,000.0,037.0,029.7,29.4,0000.0,0009.50,0005.03,0004.61
2023-08-30 14:01:00,SystemResetWarning,0833.0,5.00,000.00,028.3,025.7,000.0,037.0,029.8,29.0,0000.0,0009.30,0004.99,0004.61
2023-08-30 14:02:00,SystemResetWarning,0833.0,5.00,000.00,028.4,026.0,000.0,037.0,029.8,29.0,0000.0,0009.00,0004.97,0004.61
2023-08-30 14:03:00,SystemResetWarning,0833.0,5.00,000.00,028.4,026.3,000.0,037.0,029.9,29.1,-000.1,0009.41,0005.03,0004.63
2023-08-30 14:04:00,SystemResetWarning,0833.0,5.00,000.00,028.4,026.5,000.0,037.0,030.0,28.3,-000.2,0009.32,0005.05,0004.65
2023-08-30 14:05:00,SystemResetWarning,0832.9,5.00,000.00,028.4,026.7,000.0,037.0,030.0,28.4,-000.2,0008.59,0005.05,0004.65
2023-08-30 14:06:00,SystemResetWarning,0833.1,4.99,000.00,028.4,026.9,000.0,037.0,030.1,28.6,0000.0,0008.63,0005.05,0004.65
2023-08-30 14:07:00,SystemResetWarning,0833.2,5.00,000.00,028.4,027.1,000.0,037.0,030.1,28.4,-000.4,0008.77,0005.05,0004.64
2023-08-30 14:08:00,SystemResetWarning,0832.9,5.00,000.00,028.5,027.2,000.0,037.0,030.2,28.2,-000.0,0008.77,0005.05,0004.66
2023-08-30 14:09:00,SystemResetWarning,0832.9,5.00,000.00,028.5,027.3,000.0,037.0,030.2,28.8,0000.3,0008.48,0005.06,0004.67
2023-08-30 14:10:00,SystemResetWarning,0832.9,5.00,000.00,028.5,027.4,000.0,037.1,030.2,28.0,0000.2,0008.59,0005.09,0004.71
2023-08-30 14:11:00,SystemResetWarning,0833.0,5.00,000.00,028.6,027.5,000.0,037.1,030.3,28.0,-000.0,0009.08,0005.13,0004.75
2023-08-30 14:12:00,SystemResetWarning,0833.0,5.01,000.00,028.6,027.5,000.0,037.1,030.3,28.0,-000.3,0009.48,0005.20,0004.79
2023-08-30 14:13:00,SystemResetWarning,0833.0,5.00,000.00,028.7,027.6,000.0,037.1,030.4,28.3,-000.1,0009.69,0005.26,0004.84
2023-08-30 14:14:00,SystemResetWarning,0833.0,5.00,000.00,028.7,027.6,000.0,037.1,030.4,28.8,-000.1,0009.47,0005.31,0004.88
2023-08-30 14:15:00,SystemResetWarning,0833.0,4.98,000.00,028.7,026.3,000.0,037.0,030.2,28.3,0000.1,0009.61,0005.35,0004.92
2023-08-30 14:16:00,SystemResetWarning,0833.1,5.01,000.00,028.6,024.6,000.0,036.9,029.9,28.5,0000.5,0009.71,0005.39,0004.96
2023-08-30 14:17:00,SystemResetWarning,0833.1,5.01,000.00,028.5,024.3,000.0,036.8,029.7,29.7,0000.5,0010.09,0005.47,0005.02
2023-08-30 14:18:00,SystemResetWarning,0833.2,5.01,000.00,028.4,024.6,000.0,036.9,029.6,29.4,0000.7,0011.00,0005.55,0005.08
2023-08-30 14:19:00,SystemResetWarning,0833.4,4.99,000.00,028.3,025.0,000.0,036.9,029.6,29.1,0000.8,0011.16,0005.66,0005.17
2023-08-30 14:20:00,SystemResetWarning,0833.4,5.00,000.00,028.3,025.4,000.0,036.9,029.7,29.2,0000.6,0011.25,0005.75,0005.26
2023-08-30 14:21:00,SystemResetWarning,0833.4,5.00,000.00,028.3,025.8,000.0,036.9,029.8,29.1,0000.1,0011.73,0005.80,0005.33
2023-08-30 14:22:00,SystemResetWarning,0833.2,5.00,000.00,028.3,026.1,000.0,036.9,029.9,29.3,0000.4,0011.55,0005.88,0005.40
2023-08-30 14:23:00,SystemResetWarning,0833.1,4.99,000.00,028.3,026.4,000.0,036.9,029.9,29.4,0000.6,0011.26,0005.94,0005.46
2023-08-30 14:24:00,SystemResetWarning,0833.1,5.00,000.00,028.4,026.6,000.0,036.9,030.0,29.3,0000.7,0011.12,0005.99,0005.51
2023-08-30 14:25:00,SystemResetWarning,0833.0,5.00,000.00,028.4,026.8,000.0,036.9,030.1,28.9,0000.4,0011.19,0006.02,0005.56
2023-08-30 14:26:00,SystemResetWarning,0832.9,5.01,000.00,028.4,027.0,000.0,037.0,030.1,29.0,0000.3,0011.28,0006.07,0005.61
2023-08-30 14:27:00,SystemResetWarning,0832.9,5.00,000.00,028.5,027.1,000.0,037.0,030.1,28.8,0000.2,0011.40,0006.13,0005.65
2023-08-30 14:28:00,SystemResetWarning,0833.4,5.00,000.00,028.5,027.2,000.0,037.0,030.2,28.9,-000.1,0011.34,0006.13,0005.65
2023-08-30 14:29:00,SystemResetWarning,0833.3,5.00,000.00,028.5,027.4,000.0,037.0,030.2,29.0,-000.2,0010.37,0006.10,0005.64
2023-08-30 14:30:00,SystemResetWarning,0833.3,5.00,000.00,028.6,027.4,000.0,037.0,030.3,29.2,-000.4,0010.15,0006.05,0005.60
2023-08-30 14:31:00,SystemResetWarning,0833.0,5.01,000.00,028.6,027.5,000.0,037.0,030.3,29.2,-000.7,0010.14,0006.04,0005.57
2023-08-30 14:32:00,SystemResetWarning,0833.2,4.98,000.00,028.6,026.4,000.0,036.9,030.1,29.3,-000.7,0009.75,0006.04,0005.53
2023-08-30 14:33:00,SystemResetWarning,0833.2,5.00,000.00,028.5,024.8,000.0,036.8,029.8,29.2,-000.5,0009.49,0006.00,0005.50
2023-08-30 14:34:00,SystemResetWarning,0832.9,5.02,000.00,028.4,024.5,000.0,036.8,029.7,29.3,-000.1,0009.42,0005.97,0005.47
2023-08-30 14:35:00,SystemResetWarning,0832.8,5.00,000.00,028.3,024.7,000.0,036.8,029.6,29.3,0000.0,0009.42,0005.95,0005.45
2023-08-30 14:36:00,SystemResetWarning,0832.9,5.00,000.00,028.3,025.1,000.0,036.8,029.6,30.2,0000.1,0009.38,0005.93,0005.42
2023-08-30 14:37:00,SystemResetWarning,0833.3,5.00,000.00,028.3,025.5,000.0,036.8,029.7,30.4,0000.1,0009.30,0005.90,0005.40
2023-08-30 14:38:00,SystemResetWarning,0833.4,5.00,000.00,028.3,025.9,000.0,036.8,029.8,29.5,0000.2,0009.21,0005.89,0005.39
2023-08-30 14:39:00,SystemResetWarning,0833.3,5.00,000.00,028.3,026.2,000.0,036.9,029.9,29.8,0000.5,0009.23,0005.88,0005.38
2023-08-30 14:40:00,SystemResetWarning,0833.4,5.00,000.00,028.3,026.4,000.0,036.9,029.9,29.4,0000.8,0009.69,0005.87,0005.36
2023-08-30 14:41:00,SystemResetWarning,0833.3,5.00,000.00,028.3,026.7,000.0,036.9,030.0,30.3,0000.5,0009.85,0005.87,0005.35
2023-08-30 14:42:00,SystemResetWarning,0833.2,5.00,000.00,028.4,026.8,000.0,036.9,030.0,30.2,0000.9,0009.76,0005.82,0005.33
2023-08-30 14:43:00,SystemResetWarning,0832.9,5.00,000.00,028.4,027.0,000.0,036.9,030.1,30.5,0000.9,0009.61,0005.75,0005.31
2023-08-30 14:44:00,SystemResetWarning,0832.9,5.00,000.00,028.4,027.2,000.0,036.9,030.1,30.7,0001.3,0009.91,0005.72,0005.28
2023-08-30 14:45:00,SystemResetWarning,0833.2,5.00,000.00,028.5,027.3,000.0,036.9,030.2,30.4,0001.5,0010.15,0005.67,0005.25
2023-08-30 14:46:00,SystemResetWarning,0833.2,5.00,000.00,028.5,027.4,000.0,037.0,030.2,30.1,0001.7,0010.19,0005.64,0005.23
2023-08-30 14:47:00,SystemResetWarning,0832.9,4.99,000.00,028.5,027.0,000.0,036.9,030.2,30.0,0002.1,0010.13,0005.60,0005.21
2023-08-30 14:48:00,SystemResetWarning,0833.1,4.99,000.00,028.5,025.3,000.0,036.8,029.9,29.7,0001.8,0009.98,0005.57,0005.19
2023-08-30 14:49:00,SystemResetWarning,0833.2,5.01,000.00,028.4,024.4,000.0,036.7,029.7,30.3,0001.7,0010.37,0005.53,0005.17
2023-08-30 14:50:00,SystemResetWarning,0833.1,5.01,000.00,028.3,024.5,000.0,036.7,029.6,30.7,0001.1,0010.39,0005.52,0005.17
2023-08-30 14:51:00,SystemResetWarning,0832.9,5.01,000.00,028.2,024.9,000.0,036.7,029.5,30.1,0001.0,0010.52,0005.53,0005.19
2023-08-30 14:52:00,SystemResetWarning,0832.9,5.00,000.00,028.2,025.3,000.0,036.8,029.6,29.6,0001.1,0010.50,0005.52,0005.20
2023-08-30 14:53:00,SystemResetWarning,0833.0,4.99,000.00,028.2,025.7,000.0,036.8,029.7,30.2,0001.3,0010.73,0005.57,0005.22
2023-08-30 14:54:00,SystemResetWarning,0832.8,5.01,000.00,028.2,026.0,000.0,036.8,029.8,31.0,0001.3,0010.80,0005.60,0005.23
2023-08-30 14:55:00,SystemResetWarning,0832.8,4.99,000.00,028.2,026.3,000.0,036.8,029.9,30.1,0001.2,0010.82,0005.64,0005.25
2023-08-30 14:56:00,SystemResetWarning,0832.8,4.99,000.00,028.3,026.5,000.0,036.8,029.9,29.0,0000.5,0010.50,0005.68,0005.28
2023-08-30 14:57:00,SystemResetWarning,0832.8,5.00,000.00,028.3,026.8,000.0,036.8,030.0,29.4,0000.3,0010.74,0005.72,0005.29
2023-08-30 14:58:00,SystemResetWarning,0833.0,5.00,000.00,028.3,026.9,000.0,036.8,030.0,28.8,0000.0,0010.84,0005.75,0005.29
2023-08-30 14:59:00,SystemResetWarning,0833.0,5.00,000.00,028.4,027.1,000.0,036.9,030.1,28.7,0000.1,0010.94,0005.78,0005.30
